[[{"header":{"parameterUnit":"m.s-1","parameterCategory":1,"la1":30.2992,"la2":30.254,"lo1":-89.0895,"lo2":-89.0443,"dy":0.0025,"dx":0.0025,"nx":19,"ny":19,"refTime":"2026-04-24T21:00:00:Z","depth":0,"parameterNumber":2,"parameterNumberName":"U-component_of_WINDS"},"data":[0,0,0,1.7673,1.7674,1.7733,1.7733,1.7822,1.7823,0,0,0,0,0,0,0,0,0,0,0,1.7665,1.7666,1.7673,1.7674,1.7733,1.7733,1.7822,1.7823,0,0,0,0,0,0,0,0,0,0,0,1.7664,1.7666,1.7667,1.7675,1.7733,1.7733,1.7822,1.7773,0,0,0,0,0,0,0,0,0,0,1.7713,1.7715,1.7665,1.7667,1.7675,1.7733,1.7733,1.777,1.7776,1.7802,0,1.7829,0,1.7828,1.783,1.7831,0,0,0,1.7667,1.7711,1.7718,1.7667,1.7676,1.7733,1.7704,1.7773,1.7779,1.781,1.783,1.7833,1.7829,1.7831,1.7832,1.801,1.8011,0,0,1.7664,1.768,1.7713,1.7723,1.7715,1.7703,1.7706,1.7777,1.78,1.7831,1.7835,1.7831,1.7832,1.7832,1.8009,1.801,0,0,0,1.766,1.7678,1.7684,1.7719,1.7729,1.7704,1.7709,1.7796,1.7797,1.7836,1.7832,1.7832,1.7834,1.8008,1.8009,1.8082,0,0,0,1.7657,1.7676,1.7683,1.7693,1.7728,1.7763,1.7727,1.7792,1.7799,1.7831,1.7832,1.7835,1.8006,1.8008,1.8077,1.8114,0,0,0,1.7658,1.7676,1.7687,1.7694,1.772,1.7762,1.7766,1.7793,1.7797,1.7831,1.7835,1.8005,1.8008,1.8073,1.8106,1.8164,0,0,0,1.7663,1.7752,1.7689,1.7787,1.7719,1.7807,1.7765,1.783,1.7867,1.7833,1.8006,1.8009,1.8072,1.8102,1.816,1.8215,1.824,0,0,1.7784,1.7767,1.7823,1.7769,1.7871,1.7797,1.791,1.7929,1.7917,1.798,1.7984,1.8079,1.8106,1.8163,1.8376,1.8396,0,0,0,1.7867,1.7907,1.7931,1.7968,1.7985,1.8001,1.8001,1.8008,1.806,1.7953,1.8116,1.8131,1.8164,1.819,1.8207,1.8233,1.8022,1.8022,1.8021,1.8061,1.8041,1.8133,1.812,1.8156,1.8155,1.8182,1.8191,1.8161,1.82,1.8217,1.8349,1.838,1.8392,1.842,1.8246,1.8246,1.8247,1.8247,1.8236,1.8289,1.8247,1.832,1.8299,1.836,1.8362,1.8338,1.8392,1.8334,1.8362,1.8299,1.8415,1.8438,1.8252,1.8251,1.825,1.825,1.825,1.8359,1.8381,1.8389,1.8439,1.848,1.8464,1.8517,1.8496,1.8476,1.8504,1.852,1.8519,1.8514,1.8514,1.8514,1.8515,1.8515,1.8515,1.8516,1.8484,1.849,1.8537,1.8563,1.8583,1.8607,1.8607,1.8626,1.8642,1.8622,1.8622,1.8587,1.843,1.839,1.8523,1.8521,1.852,1.852,1.8519,1.8666,1.8622,1.8695,1.8715,1.8743,1.8784,1.8757,1.8798,1.8811,1.8837,1.8797,1.8685,1.8665,1.8652,1.8618,1.8802,1.8802,1.8802,1.8802,1.8769,1.8758,1.8827,1.8861,1.8892,1.8875,1.8957,1.8958,1.8952,1.8958,1.8929,1.8883,1.8871,1.8859,1.8841,1.8809,1.9037,1.9037,1.9037,1.8879,1.887,1.8944,1.8938,1.8958,1.8975,1.9052,1.9092,1.9075,1.9047,1.8963,1.8953,1.8879,1.8856,1.8824,1.8797,1.8739,0,0]},{"header":{"parameterUnit":"m.s-1","parameterCategory":1,"la1":30.2992,"la2":30.254,"lo1":-89.0895,"lo2":-89.0443,"dy":0.0025,"dx":0.0025,"nx":19,"ny":19,"refTime":"2026-04-24T21:00:00:Z","depth":0,"parameterNumber":3,"parameterNumberName":"V-component_of_WINDS"},"data":[0,0,0,1.3305,1.3305,1.3328,1.3329,1.3365,1.3365,0,0,0,0,0,0,0,0,0,0,0,1.3302,1.3303,1.3305,1.3305,1.3328,1.3329,1.3364,1.3365,0,0,0,0,0,0,0,0,0,0,0,1.3302,1.3303,1.3303,1.3305,1.3328,1.3329,1.3364,1.3344,0,0,0,0,0,0,0,0,0,0,1.3321,1.3323,1.3303,1.3303,1.3306,1.3328,1.3329,1.3343,1.3346,1.3357,0,1.3369,0,1.3367,1.3368,1.3368,0,0,0,1.3302,1.3321,1.3324,1.3303,1.3306,1.3328,1.3317,1.3345,1.3347,1.336,1.3369,1.337,1.3368,1.3368,1.3368,1.3444,1.3444,0,0,1.3301,1.3309,1.3322,1.3325,1.3323,1.3316,1.3318,1.3346,1.3356,1.3369,1.3371,1.3368,1.3368,1.3369,1.3443,1.3444,0,0,0,1.3299,1.3308,1.3309,1.3324,1.3328,1.3317,1.3319,1.3355,1.3355,1.3371,1.3369,1.3369,1.3369,1.3443,1.3444,1.3476,0,0,0,1.3298,1.3307,1.3309,1.3314,1.3327,1.3342,1.3327,1.3353,1.3356,1.3369,1.3369,1.3369,1.3442,1.3443,1.3474,1.3491,0,0,0,1.3299,1.3307,1.3312,1.3315,1.3325,1.3341,1.3342,1.3353,1.3355,1.3368,1.337,1.3442,1.3443,1.3472,1.3487,1.3512,0,0,0,1.3303,1.3342,1.3313,1.3356,1.3325,1.3362,1.3342,1.3369,1.3385,1.3369,1.3442,1.3444,1.3472,1.3486,1.351,1.3534,1.3545,0,0,1.3357,1.3349,1.3373,1.3348,1.3392,1.3357,1.3406,1.3412,1.3406,1.3432,1.3433,1.3475,1.3487,1.3512,1.3604,1.3613,0,0,0,1.3393,1.341,1.342,1.3435,1.3441,1.3446,1.3445,1.3447,1.3468,1.3421,1.3491,1.3498,1.3512,1.3523,1.353,1.3541,1.3449,1.3449,1.3449,1.3481,1.3471,1.351,1.3502,1.3516,1.3513,1.3524,1.3526,1.3512,1.3528,1.3536,1.3593,1.3606,1.3612,1.3624,1.3548,1.3548,1.3548,1.3548,1.3559,1.3582,1.356,1.3591,1.3579,1.3604,1.3602,1.3591,1.3613,1.3587,1.3599,1.3571,1.3622,1.3631,1.3551,1.355,1.355,1.355,1.3549,1.3615,1.3624,1.3626,1.3645,1.3661,1.3651,1.3672,1.3661,1.3651,1.3662,1.3668,1.3668,1.3665,1.3666,1.3666,1.3666,1.3666,1.3667,1.3667,1.3673,1.3673,1.3693,1.3701,1.3708,1.3716,1.3712,1.3719,1.3724,1.3714,1.3714,1.3697,1.3629,1.3612,1.367,1.3669,1.3669,1.3669,1.3668,1.3755,1.3734,1.3764,1.3771,1.3779,1.3794,1.378,1.3794,1.3798,1.3808,1.3789,1.374,1.3732,1.3726,1.3711,1.3792,1.3792,1.3792,1.3792,1.3802,1.3796,1.3823,1.3835,1.3845,1.3834,1.3867,1.3864,1.3858,1.3859,1.3846,1.3826,1.3821,1.3815,1.3807,1.3793,1.3893,1.3893,1.3893,1.3851,1.3846,1.3876,1.3869,1.3874,1.3878,1.3908,1.3922,1.3911,1.3897,1.386,1.3856,1.3824,1.3814,1.3799,1.3787,1.3762,0,0]}]]